Caro, MI

10:06 PM EST on February 20, 2017 (GMT -0500)
Caro

Weather History for KCFS - December, 2013

Change the Weather History Date:

Monday, December 16, 2013

  Actual Average (KMBS) Record (KMBS)
Temperature  
Mean Temperature 5 °F -  
Max Temperature 15 °F 32 °F 49 °F (2015)
Min Temperature -5 °F 20 °F 2 °F (2013)
Degree Days  
Heating Degree Days 60    
Moisture  
Dew Point 3 °F    
Average Humidity 74    
Maximum Humidity 87    
Minimum Humidity 64    
Precipitation  
Precipitation 0.00 in - - ()
Sea Level Pressure  
Sea Level Pressure 30.07 in    
Wind  
Wind Speed 6 mph (West)    
Max Wind Speed 12 mph    
Max Gust Speed 18 mph    
Visibility 10 miles    
Events Snow    
Averages and records for this station are not official NWS values.
T = Trace of Precipitation, MM = Missing Value Source: NWS Daily Summary

Daily Weather History Graph

Daily Weather History Graph

Search for Another Location

Airport or City:

Trip Planner

Search our weather history database for the weather conditions in past years. The results will help you decide how hot, cold, wet, or windy it might be!

Date:

Astronomy

Dec. 16, 2013 Rise Set
Actual Time 8:00 AM EST 4:58 PM EST
Civil Twilight 7:27 AM EST 5:31 PM EST
Nautical Twilight 6:51 AM EST 6:07 PM EST
Astronomical Twilight 6:16 AM EST 6:42 PM EST
Moon 4:49 PM EST (12/16) 7:06 AM EST (12/16)
Length of Visible Light 10h 03m
Length of Day
8h 58m
Full, 100% of the Moon is Illuminated
Dec 16
Full
Dec 17
Full
Dec 25
Last Quarter
Jan 1
New
Jan 7
First Quarter

Hourly Weather History & Observations

Time (EST) Temp. Windchill Dew Point Humidity Pressure Visibility Wind Dir Wind Speed Gust Speed Precip Events Conditions
12:14 AM 10.9 °F -1.8 °F 3.2 °F 71% 29.95 in 10.0 mi SW 9.2 mph - N/A   Clear
12:35 AM 10.2 °F -2.7 °F 3.0 °F 73% 29.95 in 10.0 mi SW 9.2 mph - N/A   Clear
12:54 AM 9.9 °F -2.2 °F 2.5 °F 72% 29.95 in 10.0 mi SW 8.1 mph - N/A   Clear
1:14 AM 9.5 °F -2.6 °F 2.7 °F 74% 29.95 in 10.0 mi SW 8.1 mph - N/A   Clear
1:34 AM 10.0 °F -2.9 °F 3.2 °F 74% 29.97 in 10.0 mi SW 9.2 mph - N/A   Mostly Cloudy
1:54 AM 11.3 °F -1.3 °F 4.1 °F 73% 29.97 in 10.0 mi SW 9.2 mph - N/A   Overcast
2:14 AM 12.9 °F -0.9 °F 5.2 °F 71% 29.98 in 10.0 mi WSW 11.5 mph - N/A   Overcast
2:34 AM 13.5 °F -0.2 °F 5.7 °F 71% 29.99 in 10.0 mi WSW 11.5 mph 18.4 mph N/A   Overcast
2:55 AM 13.5 °F 1.3 °F 6.3 °F 73% 30.00 in 10.0 mi WSW 9.2 mph - N/A Snow Light Snow
3:14 AM 13.8 °F 1.0 °F 7.0 °F 74% 30.01 in 10.0 mi West 10.4 mph - N/A Snow Light Snow
3:34 AM 14.0 °F 0.5 °F 7.7 °F 76% 30.01 in 10.0 mi West 11.5 mph 18.4 mph N/A Snow Light Snow
3:55 AM 14.0 °F 0.5 °F 8.2 °F 78% 30.02 in 5.0 mi West 11.5 mph - N/A Snow Light Snow
4:14 AM 14.0 °F 1.2 °F 8.6 °F 79% 30.03 in 2.0 mi West 10.4 mph - N/A Snow Light Snow
4:34 AM 12.4 °F 0.9 °F 7.2 °F 80% 30.03 in 10.0 mi West 8.1 mph - N/A   Overcast
4:55 AM 10.2 °F -1.7 °F 5.4 °F 81% 30.03 in 10.0 mi West 8.1 mph - N/A   Mostly Cloudy
5:14 AM 8.2 °F -4.1 °F 3.7 °F 82% 30.04 in 10.0 mi West 8.1 mph - N/A   Scattered Clouds
5:35 AM 7.2 °F -3.0 °F 2.8 °F 82% 30.04 in 10.0 mi West 5.8 mph - N/A Snow Light Snow
5:55 AM 6.4 °F -2.4 °F 2.3 °F 83% 30.05 in 10.0 mi West 4.6 mph - N/A   Scattered Clouds
6:14 AM 5.0 °F -5.6 °F 0.7 °F 82% 30.06 in 10.0 mi West 5.8 mph - N/A   Clear
6:35 AM 0.5 °F - -3.6 °F 83% 30.07 in 10.0 mi Calm Calm - N/A   Clear
6:54 AM 2.3 °F - -1.1 °F 86% 30.08 in 10.0 mi Calm Calm - N/A   Clear
7:14 AM 1.6 °F - -2.4 °F 83% 30.08 in 7.0 mi Calm Calm - N/A Snow Light Snow
7:35 AM -2.6 °F - -6.7 °F 82% 30.08 in 7.0 mi Calm Calm - N/A Snow Light Snow
7:54 AM -5.4 °F - -9.9 °F 81% 30.09 in 10.0 mi Calm Calm - N/A   Clear
8:14 AM -2.2 °F - -6.0 °F 84% 30.10 in 10.0 mi Calm Calm - N/A   Clear
8:35 AM -4.2 °F - -8.9 °F 80% 30.11 in 10.0 mi Calm Calm - N/A   Clear
8:54 AM -0.4 °F - -4.4 °F 83% 30.12 in 7.0 mi Calm Calm - N/A   Clear
9:14 AM 2.5 °F - -1.1 °F 85% 30.13 in 10.0 mi Calm Calm - N/A   Clear
9:35 AM 3.7 °F - 0.3 °F 86% 30.14 in 10.0 mi Calm Calm - N/A   Clear
9:54 AM 9.3 °F - 6.3 °F 87% 30.14 in 10.0 mi Calm Calm - N/A   Clear
10:15 AM 10.4 °F 2.2 °F 6.3 °F 83% 30.15 in 7.0 mi West 4.6 mph - N/A   Clear
10:35 AM 12.2 °F - 5.2 °F 73% 30.15 in 10.0 mi Calm Calm - N/A   Clear
10:54 AM 13.1 °F 5.4 °F 4.8 °F 70% 30.16 in 10.0 mi West 4.6 mph - N/A   Clear
11:15 AM 13.3 °F - 4.6 °F 68% 30.16 in 10.0 mi Calm Calm - N/A   Clear
11:35 AM 14.9 °F - 4.6 °F 64% 30.16 in 10.0 mi Calm Calm - N/A   Clear
11:54 AM 12.7 °F - 3.2 °F 66% 30.15 in 10.0 mi Calm Calm - N/A   Clear
12:15 PM 12.0 °F 5.9 °F 3.6 °F 69% 30.13 in 10.0 mi North 3.5 mph - N/A   Clear
12:34 PM 12.9 °F - 3.9 °F 67% 30.11 in 10.0 mi Calm Calm - N/A   Clear
12:54 PM 12.9 °F - 4.1 °F 68% 30.11 in 10.0 mi Calm Calm - N/A   Clear
1:15 PM 13.6 °F 6.0 °F 5.0 °F 68% 30.10 in 10.0 mi NNW 4.6 mph - N/A   Clear
1:34 PM 14.0 °F 5.1 °F 5.5 °F 69% 30.10 in 10.0 mi North 5.8 mph - N/A   Clear
1:54 PM 14.5 °F 7.1 °F 5.5 °F 68% 30.10 in 10.0 mi North 4.6 mph - N/A   Clear
2:15 PM 14.4 °F 6.9 °F 5.5 °F 68% 30.10 in 10.0 mi North 4.6 mph - N/A   Clear
2:34 PM 14.5 °F 7.1 °F 6.1 °F 69% 30.10 in 10.0 mi North 4.6 mph - N/A   Clear
2:55 PM 14.5 °F 8.8 °F 5.7 °F 68% 30.09 in 10.0 mi North 3.5 mph - N/A   Clear
3:15 PM 13.1 °F 7.1 °F 4.3 °F 68% 30.08 in 10.0 mi North 3.5 mph - N/A   Clear
3:34 PM 12.2 °F 4.3 °F 3.6 °F 68% 30.09 in 10.0 mi North 4.6 mph - N/A   Clear
3:55 PM 11.7 °F 2.3 °F 3.9 °F 71% 30.09 in 10.0 mi North 5.8 mph - N/A   Clear
4:14 PM 14.4 °F 5.5 °F 4.8 °F 66% 30.08 in 10.0 mi NNE 5.8 mph - N/A   Clear
4:35 PM 13.5 °F 5.8 °F 3.9 °F 66% 30.08 in 10.0 mi NE 4.6 mph - N/A   Clear
4:55 PM 11.8 °F 3.9 °F 3.0 °F 68% 30.09 in 10.0 mi NE 4.6 mph - N/A   Clear
5:14 PM 5.7 °F - -2.9 °F 68% 30.09 in 10.0 mi Calm Calm - N/A   Clear
5:35 PM 5.0 °F - -0.6 °F 78% 30.09 in 10.0 mi Calm Calm - N/A   Clear
5:55 PM 3.0 °F - -2.9 °F 76% 30.08 in 10.0 mi Calm Calm - N/A   Clear
6:14 PM 5.7 °F -4.8 °F 1.4 °F 82% 30.07 in 10.0 mi East 5.8 mph - N/A   Clear
6:35 PM 9.3 °F 2.8 °F 1.6 °F 71% 30.07 in 10.0 mi ESE 3.5 mph - N/A   Clear
6:54 PM 10.9 °F - 3.0 °F 70% 30.08 in 10.0 mi Calm Calm - N/A   Clear
7:14 PM 10.2 °F 3.8 °F 2.5 °F 71% 30.08 in 10.0 mi East 3.5 mph - N/A   Clear
7:35 PM 9.1 °F - 1.8 °F 72% 30.07 in 10.0 mi Calm Calm - N/A   Clear
7:54 PM 9.1 °F - 1.4 °F 71% 30.07 in 10.0 mi Calm Calm - N/A   Mostly Cloudy
8:15 PM 9.5 °F - 1.9 °F 71% 30.07 in 10.0 mi Calm Calm - N/A   Overcast
8:34 PM 10.6 °F 4.3 °F 3.4 °F 73% 30.07 in 10.0 mi ESE 3.5 mph - N/A   Overcast
8:54 PM 12.0 °F - 3.2 °F 68% 30.06 in 10.0 mi Calm Calm - N/A   Overcast
9:15 PM 12.4 °F - 3.2 °F 67% 30.06 in 10.0 mi Calm Calm - N/A   Overcast
9:34 PM 13.1 °F - 3.4 °F 65% 30.06 in 10.0 mi Calm Calm - N/A   Overcast
9:54 PM 13.3 °F - 4.3 °F 67% 30.05 in 10.0 mi Calm Calm - N/A   Overcast
10:14 PM 13.8 °F 8.0 °F 5.5 °F 70% 30.04 in 10.0 mi SE 3.5 mph - N/A   Overcast
10:34 PM 14.0 °F 6.5 °F 6.1 °F 71% 30.04 in 10.0 mi SE 4.6 mph - N/A   Overcast
10:55 PM 14.4 °F 8.6 °F 6.8 °F 72% 30.02 in 10.0 mi SE 3.5 mph - N/A   Overcast
11:14 PM 14.9 °F 7.5 °F 5.9 °F 68% 30.01 in 10.0 mi SE 4.6 mph - N/A   Overcast
11:34 PM 15.3 °F 6.6 °F 6.8 °F 69% 30.00 in 10.0 mi SE 5.8 mph - N/A   Overcast
11:55 PM 15.4 °F 9.8 °F 7.2 °F 70% 30.00 in 10.0 mi SE 3.5 mph - N/A   Overcast